When you browse on this site, cookies collect data to enhance your experience and personalize the content and advertising you see.
Visit our Privacy Policy to learn more. By continuing to use the site, you agree to this use of cookies and data.
  • In Sweden
  • List of Countries
  • For 7 days
  • Water Temperature
  • Weather Map
  • Weather Widgets
  • user-avatar
    Login

    Hourly Weather Spartanburg

    Today, 7 December, Saturday

    Time Temperature Precipitation Wind Pressure Humidity
    00:00 +8°C° 0 mm 1 mps 745 mmHg 75%
    01:00 +8°C° 0 mm 1 mps 745 mmHg 77%
    02:00 +7°C° 0 mm 1 mps 745 mmHg 79%
    03:00 +7°C° 0 mm 1 mps 745 mmHg 81%
    04:00 +7°C° 0 mm 1 mps 745 mmHg 83%
    05:00 +7°C° 0 mm 1 mps 745 mmHg 84%
    06:00 +7°C° 0 mm 1 mps 746 mmHg 85%
    07:00 +6°C° 0 mm 2 mps 746 mmHg 86%
    08:00 +7°C° 0 mm 2 mps 746 mmHg 80%
    09:00 +9°C° 0 mm 2 mps 747 mmHg 73%
    10:00 +12°C° 0 mm 2 mps 747 mmHg 67%
    11:00 +12°C° 0 mm 3 mps 747 mmHg 64%
    12:00 +13°C° 0 mm 3 mps 747 mmHg 60%
    13:00 +14°C° 0 mm 3 mps 747 mmHg 57%
    14:00 +13°C° 0 mm 3 mps 747 mmHg 59%
    15:00 +13°C° 0 mm 3 mps 747 mmHg 61%
    16:00 +13°C° 0 mm 3 mps 747 mmHg 63%
    17:00 +12°C° 0 mm 2 mps 747 mmHg 70%
    18:00 +9°C° 0 mm 2 mps 748 mmHg 77%
    19:00 +8°C° 0 mm 2 mps 748 mmHg 85%
    20:00 +7°C° 0 mm 2 mps 748 mmHg 86%
    21:00 +6°C° 0 mm 2 mps 749 mmHg 87%
    22:00 +6°C° 0 mm 2 mps 749 mmHg 89%
    23:00 +5°C° 0 mm 2 mps 749 mmHg 88%

    Tomorrow, 8 December, Sunday

    Time Temperature Precipitation Wind Pressure Humidity
    00:00 +5°C° 0 mm 2 mps 749 mmHg 87%
    01:00 +4°C° 0 mm 2 mps 749 mmHg 86%
    02:00 +4°C° 0 mm 2 mps 749 mmHg 85%
    03:00 +3°C° 0 mm 2 mps 749 mmHg 84%
    04:00 +3°C° 0 mm 2 mps 749 mmHg 83%
    05:00 +2°C° 0 mm 2 mps 749 mmHg 83%
    06:00 +2°C° 0 mm 2 mps 750 mmHg 83%
    07:00 +2°C° 0 mm 2 mps 750 mmHg 83%
    08:00 +3°C° 0 mm 2 mps 750 mmHg 75%
    09:00 +4°C° 0 mm 2 mps 750 mmHg 66%
    10:00 +6°C° 0 mm 2 mps 750 mmHg 57%
    11:00 +7°C° 0 mm 2 mps 750 mmHg 54%
    12:00 +8°C° 0 mm 2 mps 749 mmHg 51%
    13:00 +10°C° 0 mm 2 mps 749 mmHg 48%
    14:00 +10°C° 0 mm 2 mps 748 mmHg 50%
    15:00 +11°C° 0 mm 1 mps 747 mmHg 52%
    16:00 +11°C° 0 mm 1 mps 747 mmHg 55%
    17:00 +10°C° 0 mm 1 mps 747 mmHg 57%
    18:00 +9°C° 0 mm 1 mps 747 mmHg 60%
    19:00 +8°C° 0 mm 2 mps 747 mmHg 63%
    20:00 +8°C° 0 mm 2 mps 747 mmHg 63%
    21:00 +7°C° 0 mm 2 mps 746 mmHg 64%
    22:00 +7°C° 0 mm 2 mps 746 mmHg 64%
    23:00 +7°C° 0 mm 2 mps 746 mmHg 66%

    Day after tomorrow, 9 December, Monday

    Time Temperature Precipitation Wind Pressure Humidity
    00:00 +7°C° 0 mm 2 mps 745 mmHg 68%
    01:00 +7°C° 0 mm 2 mps 745 mmHg 69%
    02:00 +7°C° 0.1 mm 2 mps 744 mmHg 72%
    03:00 +7°C° 0.1 mm 2 mps 744 mmHg 74%
    04:00 +7°C° 0.1 mm 2 mps 743 mmHg 77%
    05:00 +8°C° 0.1 mm 1 mps 743 mmHg 78%
    06:00 +8°C° 0.1 mm 1 mps 743 mmHg 80%
    07:00 +8°C° 0.1 mm 1 mps 743 mmHg 82%
    08:00 +8°C° 0.3 mm 1 mps 743 mmHg 83%
    09:00 +8°C° 0.3 mm 0 mps 742 mmHg 84%
    10:00 +8°C° 0.3 mm 0 mps 742 mmHg 85%
    11:00 +10°C° 0.2 mm 1 mps 741 mmHg 86%
    12:00 +10°C° 0.2 mm 1 mps 741 mmHg 88%
    13:00 +10°C° 0.2 mm 2 mps 740 mmHg 89%
    14:00 +10°C° 0 mm 2 mps 739 mmHg 90%
    15:00 +12°C° 0 mm 2 mps 739 mmHg 91%
    16:00 +12°C° 0 mm 2 mps 738 mmHg 92%
    17:00 +13°C° 0 mm 2 mps 738 mmHg 93%
    18:00 +13°C° 0 mm 2 mps 738 mmHg 95%
    19:00 +13°C° 0 mm 2 mps 738 mmHg 96%
    20:00 +13°C° 0 mm 2 mps 739 mmHg 97%
    21:00 +13°C° 0 mm 3 mps 739 mmHg 97%
    22:00 +13°C° 0 mm 3 mps 739 mmHg 97%
    23:00 +13°C° 0 mm 3 mps 739 mmHg 96%

    10 December, Tuesday

    Time Temperature Precipitation Wind Pressure Humidity
    00:00 +14°C° 0 mm 3 mps 739 mmHg 95%
    01:00 +14°C° 0 mm 4 mps 739 mmHg 94%
    02:00 +14°C° 0 mm 4 mps 739 mmHg 94%
    03:00 +14°C° 0 mm 4 mps 739 mmHg 94%
    04:00 +14°C° 0 mm 3 mps 738 mmHg 94%
    05:00 +14°C° 0 mm 3 mps 738 mmHg 94%
    06:00 +14°C° 0 mm 3 mps 738 mmHg 95%
    07:00 +14°C° 0 mm 3 mps 738 mmHg 96%
    08:00 +15°C° 0.1 mm 4 mps 738 mmHg 94%
    09:00 +16°C° 0.1 mm 5 mps 739 mmHg 91%
    10:00 +16°C° 0.1 mm 5 mps 739 mmHg 89%
    11:00 +16°C° 0.8 mm 5 mps 739 mmHg 90%
    12:00 +16°C° 0.8 mm 5 mps 738 mmHg 91%
    13:00 +16°C° 0.8 mm 5 mps 738 mmHg 92%
    14:00 +17°C° 1.1 mm 4 mps 738 mmHg 91%
    15:00 +15°C° 1.1 mm 4 mps 738 mmHg 90%
    16:00 +14°C° 1.1 mm 3 mps 738 mmHg 88%
    17:00 +13°C° 2.5 mm 4 mps 738 mmHg 88%
    18:00 +12°C° 2.5 mm 4 mps 739 mmHg 88%
    19:00 +10°C° 2.5 mm 4 mps 740 mmHg 88%
    20:00 +10°C° 1 mm 3 mps 740 mmHg 88%
    21:00 +10°C° 1 mm 3 mps 741 mmHg 88%
    22:00 +10°C° 1 mm 2 mps 742 mmHg 88%
    23:00 +10°C° 0.1 mm 2 mps 742 mmHg 87%

    11 December, Wednesday

    Time Temperature Precipitation Wind Pressure Humidity
    00:00 +9°C° 0.1 mm 2 mps 742 mmHg 86%
    01:00 +9°C° 0.1 mm 2 mps 742 mmHg 86%
    02:00 +9°C° 0 mm 2 mps 743 mmHg 85%
    03:00 +9°C° 0 mm 2 mps 743 mmHg 85%
    04:00 +9°C° 0 mm 2 mps 743 mmHg 85%
    05:00 +8°C° 0 mm 2 mps 744 mmHg 84%
    06:00 +8°C° 0 mm 2 mps 744 mmHg 84%
    07:00 +8°C° 0 mm 2 mps 745 mmHg 84%
    08:00 +9°C° 0.1 mm 1 mps 745 mmHg 81%
    09:00 +9°C° 0.1 mm 1 mps 746 mmHg 77%
    10:00 +10°C° 0.1 mm 1 mps 747 mmHg 74%
    11:00 +9°C° 0 mm 2 mps 747 mmHg 67%
    12:00 +10°C° 0 mm 2 mps 747 mmHg 60%
    13:00 +11°C° 0 mm 3 mps 747 mmHg 54%
    14:00 +10°C° 0 mm 3 mps 747 mmHg 52%
    15:00 +10°C° 0 mm 3 mps 747 mmHg 50%
    16:00 +9°C° 0 mm 3 mps 747 mmHg 48%
    17:00 +9°C° 0 mm 3 mps 747 mmHg 50%
    18:00 +8°C° 0 mm 3 mps 748 mmHg 51%
    19:00 +7°C° 0 mm 3 mps 748 mmHg 52%
    20:00 +6°C° 0 mm 2 mps 749 mmHg 53%
    21:00 +6°C° 0 mm 2 mps 749 mmHg 53%
    22:00 +7°C° 0 mm 1 mps 750 mmHg 54%
    23:00 +6°C° 0 mm 1 mps 750 mmHg 57%

    12 December, Thursday

    Time Temperature Precipitation Wind Pressure Humidity
    00:00 +4°C° 0 mm 2 mps 750 mmHg 60%
    01:00 +3°C° 0 mm 2 mps 751 mmHg 63%
    02:00 +3°C° 0 mm 2 mps 751 mmHg 65%
    03:00 +2°C° 0 mm 2 mps 751 mmHg 68%
    04:00 +2°C° 0 mm 2 mps 751 mmHg 71%
    05:00 +1°C° 0 mm 2 mps 752 mmHg 72%
    06:00 +1°C° 0 mm 2 mps 752 mmHg 72%
    07:00 -1°C° 0 mm 2 mps 753 mmHg 73%
    08:00 0°C° 0 mm 3 mps 753 mmHg 65%
    09:00 +1°C° 0 mm 3 mps 754 mmHg 56%
    10:00 0°C° 0 mm 4 mps 754 mmHg 47%
    11:00 +3°C° 0 mm 4 mps 754 mmHg 43%
    12:00 +4°C° 0 mm 4 mps 753 mmHg 39%
    13:00 +5°C° 0 mm 4 mps 753 mmHg 34%
    14:00 +5°C° 0 mm 4 mps 753 mmHg 35%
    15:00 +4°C° 0 mm 4 mps 752 mmHg 36%
    16:00 +4°C° 0 mm 4 mps 752 mmHg 38%
    17:00 +3°C° 0 mm 4 mps 753 mmHg 42%
    18:00 +1°C° 0 mm 4 mps 753 mmHg 46%
    19:00 -1°C° 0 mm 4 mps 754 mmHg 50%
    20:00 -1°C° 0 mm 4 mps 754 mmHg 49%
    21:00 -2°C° 0 mm 4 mps 754 mmHg 49%
    22:00 -2°C° 0 mm 4 mps 754 mmHg 48%
    23:00 -3°C° 0 mm 4 mps 754 mmHg 48%
    Show more